Zurück zum Katalog

SL-8 R/B

AktivPO
NORAD 21797·ROCKET BODY·🇷🇺 Russia

Gestartet Nov 27, 1991 von Plesetsk Cosmodrome

Loading…

Nächste Überflüge (nächste 24 Stunden)

TLE

AktuellSource: Space-Track

Epoche: Sep 14, 2026, 11:51 UTC

1 21797U 91081B   26257.49443205  .00000131  00000-0  11534-3 0  9990
2 21797  82.9491  73.9476 0037576 348.1585  39.9778 13.77893251748984

Verfolge SL-8 R/B in Echtzeit mit AllMySat

Download on the App Store